Location: Black Swamp Observatory
(41.3920°N, 84.1250°W)
Time: 16:16:51
(UTC-05:00)

Vanguard 2 - Visible Passes

Search period start: 25 January 2022 00:00
Search period end: 04 February 2022 00:00
Orbit: 553 x 2936 km, 32.9° (Epoch: 25 January)

Date Brightness Start Highest point End Pass type
(mag) Time Alt. Az. Time Alt. Az. Time Alt. Az.
25 Jan 11.6 02:38:15 16° SSE 02:38:15 16° SSE 02:40:41 10° SE visible
25 Jan 11.4 04:39:39 18° SSW 04:39:39 18° SSW 04:45:41 10° S visible
25 Jan 9.7 20:03:33 10° SSW 20:10:43 35° SSE 20:12:19 34° SE visible
25 Jan 10.4 22:10:08 10° WSW 22:13:42 28° WSW 22:13:42 28° WSW visible
26 Jan 11.6 02:54:58 15° SSE 02:54:58 15° SSE 02:57:15 10° SSE visible
26 Jan 11.5 04:56:22 12° SSW 04:56:22 12° SSW 04:59:16 10° SSW visible
26 Jan 10.3 18:17:18 10° SSE 18:20:37 14° SE 18:24:37 10° ESE visible
26 Jan 9.5 20:20:34 10° SW 20:27:58 42° SSE 20:28:55 41° SE visible
26 Jan 10.6 22:27:35 10° WSW 22:30:17 23° WSW 22:30:17 23° WSW visible
27 Jan 11.7 03:11:39 13° SSE 03:11:39 13° SSE 03:13:23 10° SSE visible
27 Jan 10.0 18:32:56 10° S 18:37:33 19° SE 18:43:44 10° E visible
27 Jan 9.4 20:37:43 10° SW 20:45:19 47° SSE 20:45:29 47° SSE visible
27 Jan 10.9 22:45:06 10° WSW 22:46:52 18° WSW 22:46:52 18° WSW visible
28 Jan 11.7 03:28:20 11° S 03:28:20 11° S 03:28:57 10° S visible
28 Jan 9.7 18:49:20 10° SSW 18:54:35 25° SE 19:00:39 14° E visible
28 Jan 9.4 20:55:01 10° WSW 21:02:02 51° S 21:02:02 51° S visible
28 Jan 11.1 23:02:38 10° W 23:03:25 13° W 23:03:25 13° W visible
29 Jan 9.5 19:06:06 10° SSW 19:11:44 31° SSE 19:17:12 18° ESE visible
29 Jan 9.4 21:12:24 10° WSW 21:18:35 49° SSW 21:18:35 49° SSW visible
30 Jan 9.3 19:23:08 10° SW 19:28:59 37° SSE 19:33:44 23° ESE visible
30 Jan 9.6 21:29:50 10° WSW 21:35:06 43° SW 21:35:06 43° SW visible
31 Jan 9.1 19:40:19 10° SW 19:46:20 43° SSE 19:50:16 29° ESE visible
31 Jan 9.9 21:47:19 10° WSW 21:51:38 35° SW 21:51:38 35° SW visible
01 Feb 9.1 19:57:36 10° WSW 20:03:46 46° S 20:06:47 35° SE visible
01 Feb 10.2 22:04:53 10° W 22:08:10 28° WSW 22:08:10 28° WSW visible
02 Feb 9.0 20:15:00 10° WSW 20:21:14 48° S 20:23:20 41° SE visible
02 Feb 10.5 22:22:29 10° W 22:24:43 21° WSW 22:24:43 21° WSW visible
03 Feb 9.1 18:25:53 10° SW 18:30:30 32° SSE 18:37:19 10° E visible
03 Feb 9.1 20:32:26 10° WSW 20:38:46 47° S 20:39:53 45° SSE visible
03 Feb 10.8 22:40:12 10° W 22:41:16 15° WSW 22:41:16 15° WSW visible
